Regional Weather Roundup
Issued by NWS

Home | Current Version | Previous Version | Text Only | Print | Product List | Glossary Off
Versions: 1 2 3 4 5 6 7 8 9 10 11 12 13 14 15 16 17 18 19 20 21 22 23 24 25 26 27 28 29 30 31 32 33 34 35 36 37 38 39 40 41 42 43 44 45 46 47 48 49 50

000
ASUS44 KMEG 110110
RWRTN
TENNESSEE HOURLY STATE WEATHER ROUNDUP
NATIONAL WEATHER SERVICE MEMPHIS TN
700 PM CST WED FEB 10 2016

TNZ002-004-019-021-049-052-054-088>092-110200-
WEST TENNESSEE

CITY           SKY/WX    TMP DP  RH WIND       PRES   REMARKS
MEMPHIS INTL   CLEAR     39  17  41 SE6       30.12F WCI  35
NWS MEMPHIS      N/A     36 N/A N/A MISG        N/A
JACKSON        CLOUDY    30  11  45 E3        30.16F
DYERSBURG      CLOUDY    28  10  47 E7        30.18S WCI  21
UNION CITY     CLEAR     27  12  54 CALM      30.17S
PARIS          PTCLDY    23  16  74 CALM      30.18S
$$

TNZ008-025-027-028-033-062-065-066-110200-
NORTH MIDDLE TENNESSEE

CITY           SKY/WX    TMP DP  RH WIND       PRES   REMARKS
NASHVILLE      LGT SNOW  25  20  81 W6        30.20R WCI  18
CLARKSVILLE    LGT SNOW  24  20  84 W3        30.20R FOG
SMYRNA         SNOWSHWR  25  21  86 W3        30.22R
COOKEVILLE     PTCLDY    27  16  63 W7        30.14R WCI  19
CROSSVILLE     LGT SNOW  22  13  68 W9G17     30.08R WCI  12
$$

TNZ061-075-076-078-094-096-097-110200-
SOUTH MIDDLE TENNESSEE

CITY           SKY/WX    TMP DP  RH WIND       PRES   REMARKS
FAYETTEVILLE   CLOUDY    28  19  69 CALM      30.17R
TULLAHOMA      MOCLDY    25  21  86 NW5       30.17R WCI  19
WINCHESTER     CLOUDY    27  19  74 W5        30.17R WCI  21
MCMINNVILLE    CLOUDY    25  19  80 W12       30.16R WCI  14
COLUMBIA       CLOUDY    27  25  93 N3        30.17R
SHELBYVILLE    CLOUDY    27  23  86 CALM      30.19S
$$

TNZ017-018-042-046-047-110200-
NORTHEAST TENNESSEE

CITY           SKY/WX    TMP DP  RH WIND       PRES   REMARKS
TRI CITIES     CLOUDY    21   7  54 NW8       30.06R WCI  11
$$

TNZ012-013-036-069-073-074-110200-
CENTRAL EAST TENNESSEE

CITY           SKY/WX    TMP DP  RH WIND       PRES   REMARKS
KNOXVILLE      CLOUDY    27   7  42 W12       30.12R WCI  17
OAK RIDGE      CLOUDY    28   8  43 W8        30.14R WCI  20
GATLINBURG     CLOUDY    25   7  46 W8        30.10S WCI  16
MORRISTOWN     CLOUDY    27   1  33 NW9G17    30.07R WCI  17
$$

TNZ083-085-099-110200-
SOUTHEAST TENNESSEE

CITY           SKY/WX    TMP DP  RH WIND       PRES   REMARKS
CHATTANOOGA    FLURRIES  31  14  49 W9        30.17R WCI  23
$$

SKY/WX REPORTED AS FAIR MEANS FEW OR NO CLOUDS BELOW
12 THOUSAND FEET.




USA.gov is the U.S. government's official web portal to all federal, state and local government web resources and services.